User: anonymous   Login
Location: Caltech
(34.1382°N, 118.1253°W)
Time: 12:47:16
(UTC-08:00)
Language:

Cosmos 1508 Rocket - Orbit

View from above orbital plane
View from above orbital plane
View from above satellite
View from above satellite

Ground track
Ground track

The orbit data is extracted from the following two-line orbital elements,

1 14484U 83111B   14354.55402338  .00082571  00000-0  88761-3 0  7345
2 14484 082.8328 147.0321 0163577 319.8352 125.9561 15.48634648601210
Epoch (UTC): 20 December 2014 13:17:47
Eccentricity: 0.0163577
inclination: 82.8328°
perigee height: 309 km
apogee height: 532 km
right ascension of ascending node: 147.0321°
argument of perigee: 319.8352°
revolutions per day: 15.48634648
mean anomaly at epoch: 125.9561°
orbit number at epoch: 60121

The dashed part of the orbit path shows where the satellite is in the earth's shadow,  

DLR